When you browse on this site, cookies collect data to enhance your experience and personalize the content and advertising you see.
Visit our Privacy Policy to learn more. By continuing to use the site, you agree to this use of cookies and data.
  • en France
  • Liste des pays
  • À 7 jours
  • Température de l'eau
  • Carte météo
  • Widgets météo
  • user-avatar
    Se connecter

    Météo par heure à Jastrzebiec

    Ce jour, 19 Octobre, Samedi

    Heure Température Précipitation Vent Pression Humidité
    00:00 +11°C° 0 mm 3 m/s 745 mmHg 85%
    01:00 +11°C° 0 mm 3 m/s 746 mmHg 86%
    02:00 +11°C° 0 mm 3 m/s 746 mmHg 88%
    03:00 +11°C° 0 mm 3 m/s 746 mmHg 90%
    04:00 +10°C° 0 mm 3 m/s 746 mmHg 91%
    05:00 +10°C° 0 mm 2 m/s 746 mmHg 92%
    06:00 +10°C° 0 mm 2 m/s 746 mmHg 92%
    07:00 +10°C° 0 mm 2 m/s 747 mmHg 92%
    08:00 +13°C° 0 mm 2 m/s 747 mmHg 86%
    09:00 +14°C° 0 mm 2 m/s 747 mmHg 81%
    10:00 +16°C° 0 mm 2 m/s 747 mmHg 75%
    11:00 +16°C° 0 mm 2 m/s 747 mmHg 72%
    12:00 +17°C° 0 mm 2 m/s 747 mmHg 69%
    13:00 +18°C° 0 mm 2 m/s 747 mmHg 67%
    14:00 +18°C° 0 mm 1 m/s 747 mmHg 70%
    15:00 +16°C° 0 mm 1 m/s 746 mmHg 73%
    16:00 +15°C° 0 mm 0 m/s 746 mmHg 76%
    17:00 +15°C° 0 mm 1 m/s 746 mmHg 78%
    18:00 +15°C° 0 mm 1 m/s 747 mmHg 80%
    19:00 +14°C° 0 mm 1 m/s 747 mmHg 82%
    20:00 +14°C° 0 mm 1 m/s 747 mmHg 83%
    21:00 +13°C° 0 mm 2 m/s 746 mmHg 84%
    22:00 +13°C° 0 mm 2 m/s 746 mmHg 85%
    23:00 +13°C° 0 mm 2 m/s 746 mmHg 85%

    Demain, 20 Octobre, Dimanche

    Heure Température Précipitation Vent Pression Humidité
    00:00 +13°C° 0 mm 2 m/s 746 mmHg 86%
    01:00 +12°C° 0 mm 2 m/s 746 mmHg 87%
    02:00 +12°C° 0 mm 2 m/s 746 mmHg 88%
    03:00 +12°C° 0 mm 2 m/s 746 mmHg 89%
    04:00 +12°C° 0 mm 2 m/s 746 mmHg 90%
    05:00 +12°C° 0 mm 2 m/s 746 mmHg 90%
    06:00 +12°C° 0 mm 2 m/s 746 mmHg 90%
    07:00 +12°C° 0 mm 2 m/s 746 mmHg 90%
    08:00 +14°C° 0 mm 2 m/s 747 mmHg 84%
    09:00 +15°C° 0 mm 2 m/s 747 mmHg 77%
    10:00 +17°C° 0 mm 2 m/s 747 mmHg 71%
    11:00 +18°C° 0 mm 2 m/s 747 mmHg 67%
    12:00 +19°C° 0 mm 2 m/s 747 mmHg 63%
    13:00 +20°C° 0 mm 2 m/s 747 mmHg 58%
    14:00 +19°C° 0 mm 2 m/s 747 mmHg 62%
    15:00 +18°C° 0 mm 2 m/s 747 mmHg 66%
    16:00 +18°C° 0 mm 1 m/s 747 mmHg 70%
    17:00 +17°C° 0 mm 2 m/s 747 mmHg 73%
    18:00 +16°C° 0 mm 2 m/s 747 mmHg 76%
    19:00 +15°C° 0 mm 2 m/s 747 mmHg 79%
    20:00 +15°C° 0 mm 2 m/s 747 mmHg 80%
    21:00 +15°C° 0 mm 2 m/s 747 mmHg 82%
    22:00 +14°C° 0 mm 2 m/s 747 mmHg 83%
    23:00 +14°C° 0 mm 2 m/s 747 mmHg 84%

    Après-demain, 21 Octobre, Lundi

    Heure Température Précipitation Vent Pression Humidité
    00:00 +14°C° 0 mm 2 m/s 747 mmHg 85%
    01:00 +14°C° 0 mm 2 m/s 747 mmHg 86%
    02:00 +13°C° 0 mm 2 m/s 747 mmHg 87%
    03:00 +13°C° 0 mm 2 m/s 746 mmHg 87%
    04:00 +13°C° 0 mm 1 m/s 746 mmHg 88%
    05:00 +13°C° 0 mm 1 m/s 746 mmHg 88%
    06:00 +13°C° 0 mm 1 m/s 747 mmHg 88%
    07:00 +13°C° 0 mm 1 m/s 747 mmHg 88%
    08:00 +15°C° 0 mm 1 m/s 747 mmHg 81%
    09:00 +16°C° 0 mm 1 m/s 747 mmHg 73%
    10:00 +19°C° 0 mm 1 m/s 747 mmHg 66%
    11:00 +20°C° 0 mm 1 m/s 747 mmHg 63%
    12:00 +21°C° 0 mm 1 m/s 748 mmHg 60%
    13:00 +22°C° 0 mm 1 m/s 748 mmHg 57%
    14:00 +21°C° 0 mm 1 m/s 748 mmHg 60%
    15:00 +20°C° 0 mm 1 m/s 748 mmHg 64%
    16:00 +19°C° 0 mm 1 m/s 748 mmHg 68%
    17:00 +18°C° 0 mm 1 m/s 748 mmHg 71%
    18:00 +18°C° 0 mm 1 m/s 748 mmHg 74%
    19:00 +16°C° 0 mm 1 m/s 749 mmHg 77%
    20:00 +15°C° 0 mm 1 m/s 749 mmHg 79%
    21:00 +15°C° 0 mm 1 m/s 749 mmHg 81%
    22:00 +15°C° 0 mm 1 m/s 749 mmHg 82%
    23:00 +14°C° 0 mm 1 m/s 749 mmHg 84%

    22 Octobre, Mardi

    Heure Température Précipitation Vent Pression Humidité
    00:00 +14°C° 0 mm 1 m/s 749 mmHg 85%
    01:00 +14°C° 0 mm 1 m/s 750 mmHg 87%
    02:00 +13°C° 0 mm 1 m/s 750 mmHg 88%
    03:00 +13°C° 0 mm 1 m/s 750 mmHg 90%
    04:00 +13°C° 0 mm 1 m/s 750 mmHg 91%
    05:00 +13°C° 0 mm 1 m/s 750 mmHg 91%
    06:00 +13°C° 0 mm 2 m/s 751 mmHg 92%
    07:00 +13°C° 0 mm 2 m/s 751 mmHg 93%
    08:00 +14°C° 0 mm 2 m/s 751 mmHg 87%
    09:00 +16°C° 0 mm 2 m/s 752 mmHg 81%
    10:00 +17°C° 0 mm 2 m/s 752 mmHg 75%
    11:00 +18°C° 0 mm 2 m/s 752 mmHg 71%
    12:00 +19°C° 0 mm 3 m/s 752 mmHg 66%
    13:00 +19°C° 0 mm 4 m/s 752 mmHg 62%
    14:00 +18°C° 0 mm 3 m/s 752 mmHg 64%
    15:00 +17°C° 0 mm 3 m/s 752 mmHg 67%
    16:00 +16°C° 0 mm 2 m/s 752 mmHg 70%
    17:00 +15°C° 0 mm 2 m/s 753 mmHg 73%
    18:00 +15°C° 0 mm 2 m/s 753 mmHg 75%
    19:00 +14°C° 0 mm 2 m/s 753 mmHg 78%
    20:00 +13°C° 0 mm 2 m/s 753 mmHg 80%
    21:00 +13°C° 0 mm 2 m/s 753 mmHg 82%
    22:00 +12°C° 0 mm 2 m/s 754 mmHg 84%
    23:00 +12°C° 0 mm 1 m/s 754 mmHg 86%

    23 Octobre, Mercredi

    Heure Température Précipitation Vent Pression Humidité
    00:00 +11°C° 0 mm 1 m/s 754 mmHg 88%
    01:00 +11°C° 0 mm 1 m/s 754 mmHg 90%
    02:00 +11°C° 0 mm 1 m/s 754 mmHg 91%
    03:00 +10°C° 0 mm 1 m/s 754 mmHg 92%
    04:00 +10°C° 0 mm 1 m/s 754 mmHg 93%
    05:00 +9°C° 0 mm 0 m/s 754 mmHg 93%
    06:00 +9°C° 0 mm 0 m/s 754 mmHg 93%
    07:00 +9°C° 0 mm 0 m/s 754 mmHg 93%
    08:00 +11°C° 0 mm 1 m/s 754 mmHg 86%
    09:00 +13°C° 0 mm 1 m/s 754 mmHg 79%
    10:00 +14°C° 0 mm 1 m/s 754 mmHg 72%
    11:00 +15°C° 0 mm 1 m/s 753 mmHg 68%
    12:00 +16°C° 0 mm 2 m/s 753 mmHg 64%
    13:00 +17°C° 0 mm 2 m/s 753 mmHg 61%
    14:00 +16°C° 0 mm 2 m/s 752 mmHg 64%
    15:00 +15°C° 0 mm 2 m/s 752 mmHg 68%
    16:00 +15°C° 0 mm 2 m/s 752 mmHg 71%
    17:00 +14°C° 0 mm 2 m/s 752 mmHg 74%
    18:00 +13°C° 0 mm 2 m/s 751 mmHg 78%
    19:00 +12°C° 0 mm 2 m/s 751 mmHg 81%
    20:00 +12°C° 0 mm 2 m/s 751 mmHg 83%
    21:00 +11°C° 0 mm 3 m/s 751 mmHg 85%
    22:00 +11°C° 0 mm 3 m/s 751 mmHg 87%
    23:00 +10°C° 0 mm 3 m/s 751 mmHg 90%

    24 Octobre, Jeudi

    Heure Température Précipitation Vent Pression Humidité
    00:00 +10°C° 0 mm 3 m/s 750 mmHg 92%
    01:00 +10°C° 0 mm 3 m/s 750 mmHg 94%
    02:00 +10°C° 0 mm 3 m/s 750 mmHg 94%
    03:00 +10°C° 0 mm 3 m/s 749 mmHg 95%
    04:00 +10°C° 0 mm 3 m/s 749 mmHg 96%
    05:00 +10°C° 0 mm 3 m/s 749 mmHg 96%
    06:00 +11°C° 0 mm 3 m/s 749 mmHg 96%
    07:00 +11°C° 0 mm 3 m/s 748 mmHg 96%
    08:00 +12°C° 0 mm 3 m/s 748 mmHg 89%
    09:00 +14°C° 0 mm 3 m/s 748 mmHg 82%
    10:00 +16°C° 0 mm 3 m/s 748 mmHg 76%
    11:00 +18°C° 0 mm 3 m/s 748 mmHg 70%
    12:00 +19°C° 0 mm 2 m/s 748 mmHg 64%
    13:00 +20°C° 0 mm 2 m/s 748 mmHg 59%
    14:00 +19°C° 0 mm 2 m/s 747 mmHg 63%
    15:00 +18°C° 0 mm 2 m/s 747 mmHg 67%
    16:00 +18°C° 0 mm 1 m/s 747 mmHg 70%
    17:00 +18°C° 0 mm 1 m/s 747 mmHg 73%
    18:00 +16°C° 0 mm 1 m/s 748 mmHg 75%
    19:00 +15°C° 0 mm 2 m/s 748 mmHg 78%
    20:00 +15°C° 0 mm 2 m/s 748 mmHg 80%
    21:00 +14°C° 0 mm 2 m/s 748 mmHg 82%
    22:00 +14°C° 0 mm 2 m/s 748 mmHg 84%
    23:00 +14°C° 0 mm 2 m/s 748 mmHg 86%
    Voir plus